Regional Weather Roundup
Issued by NWS Glasgow, MT

Home | Current Version | Previous Version | Text Only | Print | Product List | Glossary On
Versions: 1 2 3 4 5 6 7 8 9 10 11 12 13 14 15 16 17 18 19 20 21 22 23 24 25 26 27 28 29 30 31 32 33 34 35 36 37 38 39 40 41 42 43 44 45 46 47 48 49 50
760
ASUS45 KGGW 180215
RWRGGW
HOURLY REGIONAL WEATHER ROUNDUP FOR NORTHEAST MONTANA
NATIONAL WEATHER SERVICE GLASGOW MONTANA
800 PM MDT TUE OCT 17 2017

NOTE: "FAIR" INDICATES FEW OR NO CLOUDS BELOW 12,000 FEET WITH NO
SIGNIFICANT WEATHER AND/OR OBSTRUCTIONS TO VISISBILITY.

NORTHEAST MONTANA


CITY           SKY/WX    TMP DP  RH WIND       PRES   REMARKS
GLASGOW        CLOUDY    64  25  22 S12       29.48F
WOLF POINT     CLOUDY    63  25  23 S7        29.50F
JORDAN           N/A     65  23  20 SW13      29.58F
WINNETT          N/A     59  22  24 SW10G20     N/A
SIDNEY         CLOUDY    61  26  26 SW15      29.56F
GLENDIVE       CLOUDY    61  25  25 S14       29.62F
SCOBEY           N/A     63  22  21 S17G28    29.48F

FORT PECK REPORTS


CITY           SKY/WX    TMP DP  RH WIND       PRES   REMARKS
FORT PECK        N/A     64  42  44 S20         N/A
THE PINES        N/A     69  30  23 SW12        N/A

SOUTHEAST MONTANA


CITY           SKY/WX    TMP DP  RH WIND       PRES   REMARKS
BILLINGS       PTCLDY    63  24  22 SW16      29.75F
MILES CITY     CLOUDY    66  25  21 S9        29.67F
BAKER          CLOUDY    63  21  20 SW17      29.72F
LIVINGSTON     CLOUDY    64  16  15 SW41G53   29.80R

CENTRAL MONTANA


CITY           SKY/WX    TMP DP  RH WIND       PRES   REMARKS
HAVRE          CLOUDY    67  24  19 SW33G45   29.48R
LEWISTOWN      CLOUDY    63  19  18 SW23      29.68S
GREAT FALLS    PTCLDY    64  21  19 SW41G58   29.66R
CUT BANK       CLEAR     58  24  27 SW44G54   29.62R
HELENA         CLEAR     66  21  18 W22G33    29.81R
BUTTE          CLOUDY    59  17  19 W12G22    29.95R
BOZEMAN        CLOUDY    60  19  20 SW13      29.87R

WESTERN MONTANA


CITY           SKY/WX    TMP DP  RH WIND       PRES   REMARKS
MISSOULA       PTCLDY    61  31  32 W21G39    29.89R
KALISPELL      NOT AVBL

NORTH DAKOTA


CITY           SKY/WX    TMP DP  RH WIND       PRES   REMARKS
WILLISTON      CLOUDY    61  27  27 SW8       29.54F
DICKINSON      CLOUDY    57  24  28 SW13      29.66F
MINOT          CLOUDY    65  28  24 SW9G18    29.55F
BISMARCK       CLEAR     59  26  28 CALM      29.68F

SOUTHERN SASKATCHEWAN


CITY           SKY/WX    TMP DP  RH WIND       PRES   REMARKS
REGINA         PTCLDY    55  21  26 S14       29.30F
ESTEVAN        PTCLDY    59  27  29 S15G22    29.44F
SWIFT CURRENT  CLEAR     64  21  19 SW26G32   29.29S





USA.gov is the U.S. government's official web portal to all federal, state and local government web resources and services.